Theta_e
319 325 326 316 307 307 307 308 312 315 320 315 318 321 324 327 328 326 329 324 328 338 341 344 348 346 344 345 344 344 344 343 343 343 342 342 341 340 340 338 336 335 337 339 339 343 340 338 337
322 324 321 311 305 304 303 311 313 317 317 313 318 320 326 327 322 319 324 318 320 326 335 339 344 347 345 344 344 344 344 344 343 343 341 341 340 340 339 339 339 336 336 336 337 343 340 337 336
322 320 313 308 305 305 304 310 314 316 313 316 317 317 323 326 321 316 321 315 316 320 323 323 334 346 346 344 343 344 344 344 344 343 340 340 340 339 339 340 337 335 334 336 339 341 339 330 335
320 313 309 313 309 312 309 315 315 314 313 311 314 319 317 316 317 316 314 314 315 315 315 315 318 325 346 346 343 343 344 344 344 343 342 337 340 339 340 338 334 336 335 336 341 341 336 331 335
312 307 309 312 313 314 312 312 312 314 312 310 310 316 319 314 313 314 314 315 316 315 314 314 313 316 321 332 346 344 343 343 343 344 343 339 337 339 338 339 333 339 341 339 341 341 325 332 335
310 307 307 307 309 311 310 308 308 309 309 310 311 313 316 313 313 313 313 313 313 313 313 313 312 312 315 318 322 341 344 342 342 342 343 342 334 334 337 337 328 340 340 341 342 336 326 333 335
308 308 307 310 311 311 310 307 309 308 309 311 308 313 312 311 312 312 313 314 314 314 314 314 313 313 313 315 316 320 329 344 342 342 341 342 340 334 336 338 331 338 340 340 340 333 325 333 336
308 307 312 311 311 312 309 309 308 308 309 308 308 309 312 309 313 313 314 315 315 314 315 315 315 315 314 314 315 315 317 326 344 343 342 342 342 339 335 338 339 336 339 339 337 332 323 331 334
308 309 310 312 312 310 308 310 310 309 310 310 309 308 308 310 314 314 314 314 314 314 315 315 315 315 316 316 315 315 315 315 319 341 344 342 342 342 336 339 338 339 337 339 338 334 324 327 332
308 308 309 312 311 311 311 312 311 311 309 310 310 309 311 313 313 313 313 313 313 314 315 316 316 315 315 316 316 316 315 315 315 318 338 343 342 342 340 336 338 338 339 337 339 336 331 323 329
312 311 313 313 313 312 312 311 311 312 312 309 310 309 309 311 311 310 311 312 313 314 315 315 315 315 315 315 315 316 317 316 315 315 318 336 344 342 341 340 336 338 339 336 339 337 334 323 324
314 311 313 313 313 313 313 311 312 311 310 308 308 309 309 309 309 310 310 312 313 315 315 315 314 314 313 313 313 314 314 316 316 315 315 324 336 342 342 341 339 336 337 338 337 338 335 328 321
314 313 313 313 312 311 311 312 312 311 309 308 308 309 309 308 309 311 311 312 313 314 314 314 313 313 313 314 315 314 313 313 315 317 316 316 323 337 342 342 341 338 338 339 339 338 337 331 323
311 311 311 311 311 311 313 312 311 311 309 310 310 310 309 309 309 310 311 313 313 313 313 313 313 313 314 315 315 316 315 314 313 314 316 317 316 322 338 341 341 340 338 338 337 340 337 334 330
311 312 310 310 312 310 312 313 313 311 310 310 310 309 309 309 311 310 312 312 312 312 312 312 312 313 314 315 316 315 316 315 313 314 314 316 317 316 323 340 341 340 339 336 336 335 337 336 334
311 308 310 309 310 311 312 313 311 309 309 310 309 308 309 309 311 312 312 312 311 311 312 312 312 313 315 315 315 315 315 315 316 314 314 314 315 317 317 321 337 340 339 337 336 336 335 334 336
306 310 310 309 309 309 312 311 307 308 308 308 308 308 307 305 308 311 311 311 311 311 311 311 312 313 313 314 315 314 313 314 315 316 317 317 315 316 318 321 322 333 338 337 336 336 335 333 335
307 307 307 309 308 307 307 307 306 306 305 305 304 304 304 305 307 309 311 311 311 311 310 311 312 312 313 313 313 313 313 313 314 316 318 319 317 315 317 320 327 331 336 338 337 336 335 334 333
308 307 306 306 305 305 306 306 307 306 303 304 303 303 303 305 307 309 310 310 310 310 311 312 313 315 313 312 312 311 312 313 314 316 317 318 319 318 316 321 326 329 334 336 337 336 335 334 333
306 305 306 305 305 306 307 308 307 307 305 305 304 302 302 305 307 308 309 308 309 311 312 314 314 313 312 312 312 311 311 311 312 314 316 318 318 318 318 319 325 328 330 333 337 336 336 334 333
305 306 305 305 305 305 304 304 301 302 303 303 301 302 302 304 306 307 307 308 309 311 312 312 313 313 312 312 312 312 311 311 312 314 315 317 319 319 319 317 321 326 329 328 333 336 336 334 332
306 304 305 306 307 311 306 309 303 302 304 306 304 302 303 305 306 306 306 308 309 310 311 311 314 314 314 312 312 312 312 313 313 314 317 317 318 318 318 318 320 325 327 328 328 332 335 334 333
306 305 304 305 306 309 306 308 303 301 307 308 307 306 305 305 306 306 306 308 309 309 310 311 313 313 314 313 313 313 314 315 315 316 317 318 319 318 318 317 318 324 327 328 328 330 331 335 334
305 305 305 304 308 309 305 306 305 303 309 308 308 307 306 306 306 306 307 308 308 308 309 309 310 311 313 313 314 314 314 314 314 316 317 319 317 318 318 317 318 322 325 327 329 329 331 331 334
302 304 301 301 300 306 304 305 306 304 303 307 307 307 306 305 305 306 306 306 307 307 307 307 307 309 311 312 313 314 314 316 315 314 316 318 318 318 318 318 318 321 323 325 328 329 327 328 330
304 307 301 300 302 303 303 307 307 305 303 304 305 306 306 305 305 305 305 306 306 306 306 306 307 307 310 311 312 313 314 315 317 318 319 318 318 318 319 319 318 319 321 324 325 327 327 329 329
305 306 306 306 301 306 303 303 301 305 308 308 307 307 306 305 305 304 304 305 306 306 306 305 306 307 309 311 313 313 313 313 314 316 319 319 318 318 318 319 319 319 318 319 322 325 326 326 327
305 304 301 300 302 303 302 302 303 304 307 307 307 305 304 304 304 303 303 305 305 305 305 305 306 306 308 310 311 312 312 312 313 315 316 318 319 318 318 318 318 319 319 320 320 322 322 322 324
304 304 304 299 304 302 304 303 299 303 306 305 304 304 303 303 302 302 302 304 305 305 304 305 305 305 307 310 312 313 311 311 311 313 316 318 319 318 319 319 319 319 320 320 321 322 322 322 325
303 303 303 302 298 302 301 304 301 300 300 302 302 302 302 301 301 300 300 303 304 304 304 304 305 305 305 308 311 313 313 311 310 311 313 317 320 320 319 320 320 320 320 320 320 322 323 324 325
Wind_Speed
4 3 3 5 4 5 3 5 1 2 1 4 3 2 5 3 2 3 4 6 5 4 5 5 3 6 9 9 9 10 9 8 8 8 8 8 8 9 10 10 10 11 12 12 10 9 11 13 13
5 3 5 3 4 2 5 3 6 4 1 4 1 1 5 1 1 4 4 7 9 9 6 3 3 3 8 10 10 8 9 9 8 7 8 8 9 9 9 9 10 10 12 11 13 11 13 12 15
4 5 4 4 3 5 5 5 4 2 1 3 3 4 3 3 2 4 8 8 9 10 9 9 7 3 5 9 10 11 11 9 8 9 8 8 10 10 9 8 9 10 11 13 13 14 15 14 16
2 6 4 4 4 5 3 2 3 2 1 4 2 5 2 1 2 7 9 5 5 7 8 9 8 7 2 5 10 12 13 13 12 11 8 9 11 11 10 8 9 11 12 12 12 18 15 17 16
6 3 3 1 4 4 4 3 2 2 1 1 0 4 2 1 10 11 7 4 3 5 7 8 8 6 4 2 4 11 14 15 14 13 11 10 12 12 11 11 12 11 11 14 16 16 15 18 17
4 3 3 3 4 4 4 2 1 1 1 1 3 5 3 6 7 6 3 1 2 5 7 9 9 7 6 5 3 3 11 15 16 16 15 12 12 13 14 12 14 10 10 16 15 14 16 18 17
5 3 3 2 3 3 3 1 2 3 2 2 3 5 1 3 5 5 2 1 3 6 8 9 10 9 8 7 6 5 5 10 16 18 17 16 14 14 15 15 14 13 14 14 15 15 17 18 17
4 3 1 2 1 5 3 3 1 1 3 3 2 4 4 5 3 3 3 2 4 6 7 8 8 9 9 8 8 7 6 7 11 17 19 18 18 15 16 17 16 15 16 17 15 15 17 19 18
2 4 1 3 1 5 5 3 2 3 3 1 2 4 1 5 6 4 3 4 5 4 4 5 6 7 9 9 10 10 10 8 9 11 19 20 21 19 20 19 19 18 18 18 17 16 17 20 20
4 2 3 1 2 3 5 2 4 5 4 3 2 3 3 3 3 3 4 8 7 6 5 5 6 8 10 11 12 13 13 12 11 10 12 21 24 24 23 22 21 19 20 20 20 18 18 20 22
1 3 2 3 3 3 4 5 2 1 5 7 4 2 2 4 5 8 11 10 9 8 7 7 7 8 11 13 15 15 16 16 15 13 12 14 23 26 27 25 24 23 22 23 22 20 20 21 24
2 4 3 4 2 4 4 5 5 6 8 5 5 5 3 8 9 14 14 12 10 9 8 7 10 13 14 16 18 20 20 19 18 17 15 13 16 26 30 30 28 26 26 26 26 25 23 23 24
1 3 6 7 9 7 6 9 7 8 11 8 9 8 9 8 14 17 14 12 10 10 9 9 13 16 19 21 22 23 24 23 22 21 20 18 16 19 31 32 32 29 25 29 29 28 27 25 25
3 5 8 7 9 5 8 12 5 9 7 8 6 9 9 8 10 12 11 12 10 10 12 13 15 18 20 23 24 23 23 24 25 25 24 22 21 20 21 32 34 32 30 29 28 30 31 30 28
4 6 7 5 2 7 3 6 7 14 7 10 10 8 8 8 9 13 13 13 10 12 15 17 19 20 22 23 24 25 24 25 27 27 27 26 25 25 24 24 34 35 34 31 30 29 30 33 31
3 2 4 4 7 5 4 11 8 11 6 10 7 7 6 7 9 11 10 11 10 14 18 20 20 21 22 24 25 25 26 26 26 28 28 29 29 28 29 29 25 34 35 34 33 30 30 31 35
4 4 5 8 5 6 7 7 12 13 9 10 11 9 7 8 7 13 13 12 13 15 18 22 22 22 23 24 25 27 28 27 27 27 28 30 31 31 30 31 32 29 31 31 34 33 32 29 29
5 6 6 10 6 7 14 20 19 17 10 12 11 8 8 8 10 13 14 13 14 16 18 19 20 24 24 23 24 26 27 28 27 27 27 27 29 32 32 33 30 31 30 33 33 34 35 32 28
4 5 10 14 13 6 11 16 20 18 8 12 13 11 9 9 8 13 13 12 12 13 14 17 20 22 21 22 23 23 21 24 24 25 24 25 27 28 33 32 30 33 31 32 37 35 32 31 29
5 8 15 11 7 5 14 23 23 21 12 14 15 11 10 5 7 8 10 8 8 11 12 15 18 22 23 22 23 23 22 24 26 26 26 23 23 27 31 34 32 32 33 32 32 40 30 30 32
5 6 6 9 7 5 9 11 6 5 5 9 7 9 7 11 10 5 6 8 8 8 10 14 18 21 22 22 21 22 23 21 21 24 28 31 28 26 30 33 35 33 34 33 31 31 38 26 30
5 4 7 7 9 8 6 7 7 7 8 4 7 7 8 9 5 5 6 10 8 10 11 14 15 18 20 18 18 18 20 19 21 23 26 28 27 30 32 33 35 34 34 33 33 34 35 31 26
9 2 7 5 4 4 2 2 9 5 6 5 4 7 7 7 7 7 7 11 9 9 10 13 15 18 19 19 19 21 20 21 21 22 25 28 29 28 31 33 34 35 33 34 35 32 35 34 30
7 6 2 3 1 2 3 2 6 4 4 6 3 6 7 7 7 7 10 9 10 8 9 13 15 17 18 18 19 20 24 23 21 22 22 24 26 28 29 32 32 34 35 35 36 36 33 33 35
6 5 4 6 4 5 1 1 10 8 7 6 8 9 9 8 7 7 6 6 9 9 10 13 14 18 19 20 19 20 20 21 24 24 23 23 24 27 29 30 33 33 35 35 33 34 39 36 30
3 2 4 4 3 6 3 5 6 5 8 9 8 7 5 7 6 6 6 8 9 9 10 13 15 18 18 18 19 21 19 19 20 24 25 25 27 28 31 30 32 34 33 34 34 33 33 32 33
2 2 1 3 2 4 4 7 10 4 5 3 5 4 7 8 7 7 8 9 9 8 10 12 14 16 17 20 21 21 20 21 22 24 24 26 28 30 30 30 28 31 31 34 33 34 33 32 31
2 0 3 3 6 6 5 6 5 6 6 5 7 9 8 7 7 7 7 12 10 9 10 10 12 15 17 17 17 16 18 19 19 20 22 25 27 27 29 29 29 29 29 29 31 33 31 30 28
2 1 3 3 3 3 5 8 7 7 4 7 9 9 8 8 8 7 7 14 11 10 11 11 11 13 15 17 19 20 20 20 19 18 19 18 22 24 25 27 27 28 27 27 26 27 28 28 25
2 4 5 4 4 2 3 8 4 7 8 6 10 9 8 8 8 7 7 13 15 14 12 11 11 12 13 15 17 18 21 21 21 20 20 14 17 20 23 24 25 27 27 26 24 23 23 25 25
Wind_Direction
358 42 87 37 69 63 255 252 251 248 244 329 295 179 149 72 152 193 113 83 76 73 55 51 145 204 197 195 189 181 176 174 172 173 172 172 173 175 169 164 162 161 163 166 168 148 137 130 127
19 47 55 76 97 108 261 244 219 206 226 302 155 80 44 84 110 125 116 92 79 76 69 359 46 213 215 207 202 203 192 185 186 190 184 177 176 176 174 170 172 170 167 169 172 165 153 157 139
73 48 77 91 115 189 215 219 213 181 3 148 107 56 115 137 96 136 132 112 82 74 62 50 50 61 211 223 222 214 207 202 193 202 198 191 182 182 179 180 179 177 175 169 173 173 173 157 149
39 27 38 92 229 256 232 288 247 168 189 51 120 80 53 337 177 147 140 116 74 57 42 33 30 43 89 217 238 235 224 215 203 207 215 204 190 187 184 192 184 173 177 183 185 180 178 162 158
45 56 68 58 255 261 248 280 222 226 111 50 76 181 104 52 133 138 131 98 35 23 13 5 3 4 11 12 239 243 245 237 223 217 216 209 199 195 185 201 196 192 204 191 175 177 175 167 165
42 87 74 227 238 251 277 261 280 210 253 300 107 123 178 151 147 144 139 125 12 1 0 355 347 343 337 330 320 279 247 247 243 231 223 217 212 203 192 208 196 195 186 183 177 183 178 174 174
102 88 208 224 252 283 234 235 243 204 183 222 168 132 249 241 174 177 186 6 349 347 348 344 338 330 324 325 323 298 305 248 244 244 238 227 222 215 203 207 202 197 191 188 191 190 186 184 186
104 90 80 262 274 270 316 317 333 179 254 300 183 185 201 219 214 190 184 272 313 325 340 348 341 331 323 314 316 317 301 298 253 239 243 238 232 223 214 214 214 212 209 203 201 199 193 193 197
102 51 306 272 263 298 339 323 321 314 270 288 231 156 117 147 172 180 255 282 301 308 327 335 329 323 316 313 304 300 303 300 290 264 237 239 234 227 220 220 219 222 217 213 208 205 201 200 204
67 116 242 275 275 274 304 2 318 339 346 263 273 271 256 153 215 269 277 280 291 292 295 314 324 322 319 314 308 301 295 293 295 287 277 237 235 229 224 224 220 223 220 217 217 214 208 204 207
45 205 317 290 302 321 295 299 273 276 282 239 230 216 285 268 262 274 283 270 275 280 276 295 314 322 319 315 312 306 299 289 283 284 282 277 242 233 229 226 223 221 220 219 219 220 215 211 210
336 238 252 277 301 321 288 294 290 226 238 247 232 246 237 266 271 272 269 261 263 257 262 279 303 308 309 306 301 296 292 290 283 273 272 277 271 241 232 227 225 221 219 220 220 219 221 218 216
236 323 315 287 289 253 259 248 240 252 252 253 270 271 262 250 257 263 263 259 245 246 262 283 295 304 307 306 301 291 282 278 276 274 265 262 260 258 240 234 228 222 217 218 220 223 223 222 220
294 276 283 280 274 272 251 259 167 254 262 267 248 268 268 258 259 264 251 236 232 254 273 284 293 300 303 305 302 296 286 274 268 264 263 258 255 252 250 229 226 224 218 218 216 217 224 224 223
288 319 323 278 283 295 263 288 233 255 254 261 268 264 266 258 258 242 245 237 248 272 286 290 296 298 300 303 300 295 289 280 270 263 258 256 254 249 249 244 229 226 224 218 219 222 224 228 226
331 62 359 261 305 266 167 274 283 296 252 247 258 278 289 258 230 242 229 238 256 281 290 295 295 295 297 299 299 295 287 285 275 264 260 254 252 250 246 245 243 227 218 212 213 216 219 224 227
353 281 274 301 211 283 221 283 267 270 266 262 277 272 267 273 257 234 232 251 275 288 292 293 295 296 299 299 297 293 288 283 276 267 262 257 251 248 246 245 245 244 219 210 208 211 216 219 221
280 292 267 264 278 280 276 276 269 269 262 260 265 263 262 255 248 247 243 253 278 289 292 292 296 298 302 300 298 294 292 284 278 270 266 261 256 250 246 243 241 241 234 214 213 210 212 216 220
265 261 267 276 280 286 267 273 271 271 231 248 252 252 244 237 253 252 250 261 280 287 295 300 304 310 310 306 301 300 293 291 284 277 272 266 261 258 248 242 236 236 232 233 213 213 211 209 214
277 282 282 290 281 281 283 279 273 267 244 234 240 235 231 230 248 243 251 261 273 290 303 307 312 311 310 303 300 294 286 284 283 278 273 266 261 257 253 240 233 233 232 233 227 212 214 214 202
259 242 273 272 315 259 326 292 326 297 259 252 246 229 220 217 227 242 259 260 279 298 314 317 319 318 313 305 295 292 288 282 284 273 262 259 258 254 251 245 235 231 231 231 236 228 216 203 202
292 228 261 283 332 320 42 297 310 321 308 266 265 212 223 210 211 232 256 268 276 300 314 317 321 323 322 312 287 272 264 267 269 272 269 271 268 261 254 250 236 233 231 230 229 232 227 223 207
246 299 262 271 266 314 23 285 271 323 321 305 263 245 219 204 213 236 246 266 285 295 308 317 320 320 326 322 303 281 270 267 270 267 264 267 268 262 259 253 241 233 232 232 230 228 228 226 224
307 309 338 69 326 278 240 182 285 284 256 300 281 238 238 229 224 233 248 269 282 305 320 325 319 318 328 323 312 289 272 274 273 270 269 256 255 263 256 250 245 236 233 232 232 231 231 234 234
6 10 338 355 9 234 9 210 249 260 257 256 244 229 225 226 228 235 241 268 295 304 309 315 317 320 335 334 316 313 303 287 272 271 263 261 253 253 253 249 244 238 238 234 233 235 237 235 240
346 58 128 289 316 289 305 230 259 226 298 268 266 259 242 244 243 253 259 252 267 281 295 316 328 327 336 335 330 325 317 307 297 274 270 259 248 248 259 256 247 246 242 240 233 232 236 238 240
332 8 158 277 245 289 268 286 293 287 296 314 280 254 247 246 248 255 259 260 276 289 304 308 321 325 338 342 343 332 322 316 310 299 286 271 256 249 253 259 256 250 246 243 241 238 234 239 243
159 140 19 11 345 306 295 285 242 309 298 266 256 260 269 263 256 253 257 263 261 271 284 307 323 332 336 339 340 326 328 321 319 313 296 279 272 258 254 255 256 255 249 245 241 242 245 246 239
124 208 85 141 171 205 311 276 222 235 270 295 275 261 255 261 265 266 269 266 267 272 283 303 319 324 330 339 344 348 342 341 328 320 323 294 279 257 258 256 256 254 250 246 243 238 238 240 229
193 205 164 126 258 196 167 272 282 271 285 285 281 278 279 263 266 261 258 269 267 264 270 276 294 310 326 335 340 343 352 357 348 334 331 334 297 269 259 258 258 254 249 244 240 240 239 235 224